Location: Syracuse
(43.0480°N, 76.1480°W)
Time: 05:48:25
(UTC-04:00)

Daily predictions for brighter satellites

Satellite Brightness Start Highest point End
(mag) Time Altitude Azimuth Time Altitude Azimuth Time Altitude Azimuth
CZ-4B R/B 3.0 00:03:32 27° ENE 00:03:32 27° ENE 00:06:14 10° N
Cosmos 44 Rocket 3.4 00:03:45 37° SW 00:05:52 82° WNW 00:11:10 10° NNE
Cosmos 389 Rocket 3.0 00:03:29 10° NNW 00:06:44 53° WNW 00:06:44 53° WNW
NOSS 2-3 (D) 4.0 00:05:33 33° SW 00:07:50 78° NW 00:13:35 10° NE
Terra 3.7 00:09:58 17° WSW 00:11:40 20° W 00:15:10 10° NW
Okean 1-7 3.3 00:07:38 10° NNW 00:11:48 52° W 00:12:15 50° WSW
Cosmos 158 Rocket 3.9 00:07:06 10° NNW 00:12:24 78° WSW 00:13:25 57° S
In-Cosmos 22 Rocket 4.2 00:11:14 45° SSW 00:13:05 84° W 00:18:55 10° N
ALOS 2 2.9 00:13:37 51° E 00:14:07 54° ENE 00:18:24 10° N
GEOS 3 Rocket 4.1 00:13:50 32° ESE 00:16:02 55° NE 00:21:06 10° NNW
Uosat 12 SS-18 rocket 4.1 00:16:27 63° SSW 00:17:10 80° ESE 00:21:40 10° NE
Coronas F rocket 4.0 00:19:36 17° NE 00:19:36 17° NE 00:20:27 10° NNE
Meteor 2-3 Rocket 3.7 00:17:03 46° SSW 00:18:50 83° W 00:24:35 10° N
Cosmos 372 Rocket 4.5 00:17:21 32° SW 00:19:34 57° WNW 00:24:44 10° NNE
Cosmos 1825 4.5 00:22:21 15° ENE 00:22:21 15° ENE 00:23:59 10° NE
SL-08 ROCKET BODY 4.4 00:23:35 46° S 00:25:36 87° W 00:31:47 10° N
Meteor 2-10 Rocket 3.7 00:21:29 10° N 00:27:09 85° E 00:28:33 54° SSE
Cosmos 2084 Rocket 3.3 00:28:49 68° NW 00:28:49 68° NW 00:32:35 10° NNE
Cosmos 2263 Rocket 3.4 00:29:49 26° ESE 00:30:01 26° ESE 00:34:41 10° NE
Meteor 1-10 Rocket 4.3 00:25:50 10° N 00:31:49 76° E 00:33:24 51° SSE
MOS 1-B Rocket 4.5 00:31:38 33° ESE 00:33:35 45° ENE 00:38:55 10° N
ATLAS 2AS CENTAUR R/B 4.3 00:29:01 10° WSW 00:36:10 40° NW 00:43:44 10° NNE
Cosmos 921 Rocket 3.2 00:37:04 58° ENE 00:37:04 58° ENE 00:40:53 10° NNE
Cosmos 1356 Rocket 3.4 00:40:30 73° NE 00:40:30 73° NE 00:44:20 10° NNE
Lacrosse 4 Rocket 3.5 00:37:19 10° WNW 00:40:03 18° WSW 00:40:03 18° WSW
Cosmos 1674 Rocket 3.4 00:37:50 10° N 00:42:18 85° E 00:42:28 82° SE
Cosmos 1607 3.8 00:37:54 10° NW 00:44:05 82° WSW 00:45:42 52° SSE
Aureole 2 Rocket 4.3 00:42:07 10° NW 00:43:52 23° WNW 00:43:52 23° WNW
SL-16 R/B 3.7 00:40:57 10° NW 00:45:14 22° W 00:46:17 21° WSW
ATLAS 3B R/B 3.7 00:39:41 10° NW 00:45:17 27° WSW 00:46:35 25° SW
Nadezhda 3 Rocket 3.9 00:42:18 10° N 00:48:34 84° E 00:50:20 51° SSE
CZ-4C R/B 4.2 00:49:56 37° WNW 00:49:56 37° WNW 00:52:41 10° NNW
CZ-2C R/B 3.1 00:44:39 10° NNE 00:49:35 41° E 00:50:05 40° ESE
Cosmos 1689 Rocket 3.5 00:52:09 42° NNW 00:52:09 42° NNW 00:54:30 10° NNW
Cosmos 1975 Rocket 4.0 00:50:12 10° N 00:54:16 36° ENE 00:54:40 35° E
Cosmos 1782 3.1 00:55:32 10° NNW 00:59:07 61° WNW 00:59:07 61° WNW
Cosmos 44 3.7 00:57:49 42° WSW 00:59:33 67° NW 01:05:01 10° NNE
USA 238 DEB 4.1 00:53:59 10° NW 01:00:38 47° WSW 01:02:06 41° SSW
USA 238 4.1 00:54:04 10° NW 01:00:44 47° WSW 01:02:13 42° SSW
Cosmos 1908 Rocket 3.5 01:02:05 76° E 01:02:05 76° E 01:06:23 10° NNE
Cosmos 1340 Rocket 3.9 01:05:03 34° WNW 01:05:08 35° WNW 01:08:46 10° N
Cosmos 1943 3.1 01:01:11 10° NNW 01:06:55 89° WSW 01:08:08 57° SSE
Okean 3 3.7 01:04:26 10° N 01:08:43 60° E 01:08:50 59° E
Geosat 4.0 01:04:10 10° NNE 01:09:11 64° ESE 01:09:37 61° SE
BREEZE-M DEB (TANK) 2.6 01:03:10 10° WNW 01:09:06 63° W 01:09:06 63° W
Landsat 5 4.0 01:10:53 50° W 01:10:54 50° W 01:15:21 10° NNW
Cosmos 1238 Rocket 3.3 01:13:57 10° NNW 01:16:55 48° NW 01:16:55 48° NW
H-2A R/B 3.6 01:14:13 10° N 01:18:07 36° WNW 01:18:48 34° W
CENTAUR R/B 4.3 01:11:18 10° NNW 01:18:17 37° NE 01:25:45 10° ESE
Cosmos 1295 Rocket 4.5 01:17:48 51° S 01:19:32 80° E 01:25:55 10° N
Cosmos 2154 Rocket 4.3 01:17:41 41° SW 01:19:42 59° W 01:25:55 10° N
OceanSat 1 rocket 4.5 01:15:03 10° NNE 01:19:56 86° ESE 01:20:25 72° S
Cosmos 1606 3.2 01:18:18 10° NNW 01:21:35 54° WNW 01:21:35 54° WNW
SeaSat 1 3.8 01:23:17 25° WSW 01:23:17 25° WSW 01:27:04 10° NW
Meteor 1-27 Rocket 3.8 01:19:05 10° NNW 01:24:53 67° W 01:26:02 54° SSW
Helios 1A Rocket 3.4 01:22:32 10° N 01:26:36 52° WNW 01:26:47 52° W
CZ-4C R/B 3.0 01:24:24 10° NW 01:31:24 58° WSW 01:33:37 43° S
RESURS DK-1 2.7 01:32:36 57° E 01:32:36 57° E 01:36:19 10° NNE
Cosmos 1184 Rocket 4.2 01:33:17 34° ENE 01:33:17 34° ENE 01:35:38 10° NNE
Cosmos 1408 3.0 01:33:18 63° NNW 01:33:18 63° NNW 01:36:36 10° N
NOSS 3-2 (C) 3.9 01:26:59 10° NW 01:34:30 77° WSW 01:38:05 37° SSE
CZ-4B R/B 3.9 01:37:17 15° WNW 01:37:17 15° WNW 01:38:27 10° NW
Cosmos 1624 Rocket 4.3 01:35:46 48° SE 01:36:27 51° ESE 01:41:32 10° NNE
Cosmos 2151 Rocket 4.4 01:37:21 38° ESE 01:37:44 39° E 01:41:53 10° NNE
Meteor 2-13 Rocket 4.4 01:40:08 49° SSW 01:41:51 74° W 01:48:01 10° N
Cosmos 1378 Rocket 4.2 01:38:08 10° NNW 01:42:09 42° W 01:42:09 42° W
Cosmos 1867 3.5 01:39:11 10° NW 01:44:38 67° WSW 01:45:23 59° SSW
Cosmos 1862 4.1 01:46:07 41° WNW 01:46:07 41° WNW 01:49:53 10° N
CZ-2C R/B 3.2 01:47:42 53° S 01:49:05 77° WSW 01:54:41 10° NNW
Cosmos 1959 Rocket 4.4 01:53:04 47° SSW 01:54:58 79° W 02:01:13 10° N
NOSS 3-2 (A) 4.2 01:48:48 10° NW 01:56:01 50° WSW 01:58:20 39° SSW
Cosmos 1825 3.3 01:57:17 35° WNW 01:57:17 35° WNW 02:00:36 10° N
NOSS 3-4 (A) 3.9 01:54:27 31° WSW 01:57:32 62° NW 02:04:07 10° NNE
BREEZE-M DEB (TANK) 4.2 01:54:36 10° WNW 01:57:36 40° N 02:06:09 10° ENE
NOSS 3-4 (C) 3.8 01:54:33 32° WSW 01:57:38 63° NW 02:04:12 10° NNE
SL-08 R/B 4.5 01:57:58 46° SSW 01:59:55 75° W 02:06:16 10° N
PSLV R/B 4.0 02:00:11 64° W 02:00:11 64° W 02:04:04 10° NNW
SL-8 Rocket 4.3 02:00:20 41° SW 02:02:23 58° W 02:08:38 10° N
Meteor 2-8 Rocket 4.4 01:57:59 10° N 02:04:05 88° ENE 02:06:14 43° S
BREEZE-M DEB (TANK) 4.0 01:51:57 10° WNW 02:04:20 59° SW 02:05:38 46° SSE
Cosmos 1242 Rocket 2.8 02:02:39 10° N 02:05:38 63° NNW 02:05:38 63° NNW
Cosmos 1339 Rocket 4.4 02:02:35 10° N 02:08:43 87° E 02:10:55 42° S
Cosmos 1844 Rocket 3.6 02:08:12 32° SE 02:09:47 38° ESE 02:14:58 10° NE
Cosmos 1812 3.6 02:07:46 10° N 02:11:30 42° ENE 02:12:12 38° ESE
Gbstr 26 Del rocket 3.7 02:13:29 37° ESE 02:13:29 37° ESE 02:16:23 10° ENE
Cosmos 2263 Rocket 2.8 02:11:29 32° WSW 02:13:40 47° WNW 02:19:09 10° NNE
Okean 2 Rocket 4.0 02:15:39 33° W 02:16:15 35° WNW 02:20:24 10° N
Cosmos 2218 Rocket 4.3 02:14:09 38° SW 02:16:17 55° WNW 02:22:32 10° N
Cosmos 1190 Rocket 3.9 02:17:02 10° NNW 02:22:15 75° WSW 02:23:35 50° S
Cosmos 2366 rocket 4.3 02:24:58 36° SW 02:27:07 52° WNW 02:33:10 10° N
ATLAS 5 CENTAUR R/B 3.8 02:22:12 10° NNW 02:27:38 37° NE 02:33:26 10° ESE
CZ-2C R/B 4.0 02:25:22 10° N 02:29:38 26° WNW 02:31:36 21° W
Cosmos 967 Rocket 4.5 02:27:34 40° SSW 02:30:04 80° ESE 02:36:34 10° NE
Cosmos 1300 Rocket 3.8 02:29:48 46° SE 02:30:46 59° E 02:35:04 10° NNE
SL-08 R/B 4.1 02:29:13 23° SE 02:32:03 50° ENE 02:36:46 10° N
Abrixas rocket 3.3 02:31:35 35° NW 02:32:25 43° NNW 02:35:40 10° ENE
Cosmos 2056 Rocket 3.9 02:32:51 38° WSW 02:34:32 54° WNW 02:39:41 10° NNE
Cosmos 407 Rocket 3.4 02:29:49 10° NNW 02:34:59 72° WSW 02:36:34 44° S
Cosmos 2278 Rocket 3.4 02:36:48 23° SSE 02:39:18 33° ESE 02:44:19 10° NE
Cosmos 724 4.3 02:35:03 10° NW 02:41:09 70° WSW 02:44:32 28° SSE
AQUA 4.4 02:39:04 10° NNE 02:43:42 48° E 02:45:34 31° SSE
NOSS 2-2 (E) 4.0 02:43:13 41° SSE 02:44:05 47° ESE 02:48:44 10° NE
Cosmos 1536 Rocket 4.0 02:39:54 10° NNW 02:44:05 44° W 02:44:35 42° WSW
COSMOS 2406 3.3 02:39:04 10° NNW 02:44:45 59° WSW 02:46:47 38° S
Cosmos 676 Rocket 3.9 02:41:26 10° NNW 02:46:38 76° WSW 02:48:41 37° S
Okean 1 3.2 02:45:57 10° NNW 02:49:57 75° W 02:50:39 57° SSW
USA 161 4.1 02:49:31 13° ESE 02:51:09 19° ENE 02:53:21 10° NNE
Cosmos 1461 3.9 02:50:09 33° SSE 02:51:29 42° ESE 02:55:51 10° NE
SL-27 R/B 3.1 02:51:39 10° NNW 02:54:52 42° W 02:54:52 42° W
Iridium 4 Rocket 4.0 02:51:19 10° NNW 02:55:51 42° W 02:57:15 34° SW
Cosmos 2082 Rocket 4.4 02:51:46 10° N 02:56:30 26° NE 03:01:12 10° ESE
Landsat 4 4.0 03:01:34 45° WSW 03:01:49 46° W 03:05:30 10° NNW
Cosmos 1602 4.0 03:03:09 39° SSE 03:04:23 62° E 03:08:11 10° NNE
TIMED 4.4 03:03:09 44° SSW 03:04:30 81° WNW 03:08:54 10° NNE
USA 234 3.2 02:58:17 10° SE 03:04:50 88° SW 03:11:25 10° NW
CENTAUR R/B 3.0 03:01:49 10° NW 03:09:37 70° WSW 03:17:50 10° SSE
NPP 3.6 03:05:01 10° NNE 03:10:25 79° WNW 03:13:05 31° SSW
Cosmos 1954 Rocket 4.0 03:06:29 10° NNW 03:11:34 59° WSW 03:13:58 30° S
Cosmos 1934 Rocket 3.9 03:08:09 27° S 03:11:43 90° WSW 03:17:53 10° N
Meteor 2-4 Rocket 4.2 03:07:40 10° N 03:12:57 54° ENE 03:18:11 10° SSE
CBERS 1 LM4 rocket 4.4 03:12:11 10° NNE 03:17:06 77° ESE 03:19:36 28° S
Okean 1 Rocket 3.5 03:16:19 34° SW 03:17:48 48° WNW 03:22:10 10° N
Cosmos 1315 Rocket 4.5 03:19:38 13° SSE 03:22:35 29° E 03:26:07 10° NNE
Okean 1-7 Rocket 4.1 03:18:31 10° NNW 03:22:51 43° W 03:24:24 32° SW
CZ-2D R/B 3.4 03:19:02 10° NNE 03:24:04 37° E 03:28:56 11° SSE
ERS-2 2.3 03:23:02 10° N 03:26:43 60° WNW 03:28:00 36° SW
SAR-Lupe-3 4.5 03:25:22 27° SSE 03:27:11 88° ENE 03:30:45 10° NNW
Cosmos 1025 Rocket 2.9 03:26:21 10° NNW 03:30:39 75° W 03:33:09 24° S
Meteor 2-14 Rocket 4.4 03:27:36 24° SSW 03:31:23 75° W 03:37:29 10° N
Timation 2 Rocket 4.0 03:25:36 10° NNW 03:31:47 78° ENE 03:37:45 10° SSE
Cosmos 1833 Rocket 4.2 03:29:25 10° N 03:34:38 37° ENE 03:39:48 10° SE
Okean O Rocket 4.0 03:34:43 10° NE 03:37:38 17° E 03:40:32 10° SE
UNK 4.3 03:33:23 10° SSE 03:37:55 58° ENE 03:42:29 10° N
ARIANE 5 R/B 2.7 03:34:06 10° NNE 03:39:05 67° ESE 03:42:54 17° S
Cosmos 1455 Rocket 3.6 03:36:21 16° SSE 03:39:45 56° E 03:44:07 10° NNE
Meteor 2-15 4.5 03:34:11 10° NNW 03:40:16 64° W 03:45:04 17° S
IRS-1C 4.3 03:36:06 10° N 03:41:22 61° WNW 03:44:44 22° SW
UNKNOWN OBJECT B 4.4 03:39:09 10° NNE 03:42:53 33° E 03:46:34 10° SSE
GP-B 4.3 03:43:11 10° NNW 03:46:57 27° W 03:48:48 20° WSW
Cosmos 1420 Rocket 4.4 03:45:14 22° SW 03:48:29 54° WNW 03:53:41 10° NNE
Cosmos 1536 3.1 03:47:37 25° SW 03:49:43 52° WNW 03:53:42 10° N
Cosmos 1605 Rocket 4.1 03:47:06 19° SSW 03:51:33 64° W 03:57:49 10° N
Okean 2 3.3 03:47:39 10° N 03:51:47 87° WSW 03:55:31 12° S
Cosmos 1356 3.5 03:50:06 26° SSW 03:51:56 67° WNW 03:55:29 10° N
Cosmos 1844 Rocket 3.7 03:49:51 16° WSW 03:53:41 34° NW 03:58:50 10° N
NOSS 2-2 (D) 4.3 03:52:27 19° WSW 03:55:13 46° NW 04:00:01 10° NNE
Cosmos 2123 Rocket 4.4 03:49:40 10° NNW 03:55:41 47° W 04:00:32 16° SSW
Cosmos 1140 Rocket 4.1 03:51:34 10° NW 03:56:12 35° WSW 03:59:21 18° SSW
Resurs 1-4 Rocket 2.3 03:52:54 10° NNE 03:58:14 75° ESE 04:03:07 12° S
SL-16 R/B 2.5 03:52:28 10° SSE 03:58:43 81° WSW 04:04:58 10° NNW
Gbstr 26 Del rocket 3.8 03:56:03 11° W 03:59:35 38° NNW 04:03:07 10° NE
ATLAS 2A CENTAUR R/B 4.3 03:54:19 18° SW 03:59:38 29° S 04:26:10 10° SE
EO 1 Del DPAF 3.2 03:59:24 10° S 04:03:16 74° WSW 04:07:10 10° NNW
ADEOS 4.2 04:00:27 10° N 04:05:23 44° WNW 04:09:11 16° SW
Cosmos 1544 Rocket 3.8 04:02:40 19° SSW 04:05:42 54° W 04:10:02 10° N
COSMOS 2487 4.0 04:05:39 10° NW 04:08:23 20° W 04:09:22 18° WSW
Abrixas rocket 4.1 04:06:55 10° WNW 04:10:00 32° N 04:13:03 10° ENE
Cosmos 1633 3.7 04:10:16 18° SW 04:12:12 29° WNW 04:15:27 10° NNW
ATLAS 5 CENTAUR R/B 2.6 04:06:45 10° NW 04:12:34 50° WSW 04:18:46 10° SSE
BREEZE-M DEB (TANK) 3.9 04:09:28 10° WNW 04:14:55 33° N 04:17:20 10° ENE
USA 161 3.3 04:20:43 15° WSW 04:21:28 17° W 04:23:28 10° NW
USA 129 2.8 04:20:06 10° SSE 04:22:06 42° ENE 04:24:00 10° N
Cosmos 2278 Rocket 3.0 04:18:39 13° WSW 04:23:16 39° WNW 04:28:35 10° NNE
Cosmos 2297 3.8 04:20:31 13° SW 04:25:34 69° WNW 04:31:17 10° NNE
Cosmos 2173 Rocket 4.0 04:20:18 10° S 04:26:24 85° W 04:32:38 10° N
Cosmos 1400 Rocket 4.1 04:26:03 13° SW 04:28:45 26° WNW 04:32:07 10° NNW
CZ-2C R/B 4.0 04:24:54 10° SSE 04:29:39 78° ENE 04:34:27 10° N
NOSS 5 (C) 4.2 04:28:01 14° SW 04:30:42 71° NW 04:33:49 10° NNE
CZ-2D R/B 3.4 04:32:02 10° N 04:36:03 83° WNW 04:40:08 10° SSW
Cosmos 1459 Rocket 4.1 04:32:30 10° SSW 04:38:48 67° W 04:45:05 10° N
Cosmos 1302 Rocket 4.3 04:34:39 10° S 04:39:49 72° ESE 04:45:04 10° NNE
Cosmos 2082 Rocket 2.4 04:35:21 10° NNW 04:40:56 54° WSW 04:46:27 10° S
CZ-4B R/B 3.7 04:35:35 10° NNE 04:41:15 66° ESE 04:46:51 10° S
Cosmos 1802 Rocket 4.0 04:35:55 10° SSW 04:42:02 74° W 04:48:12 10° N
BREEZE-M DEB (TANK) 2.2 04:42:38 10° SW 04:45:15 49° SSE 04:48:35 10° ENE
USA 234 4.2 04:43:16 10° S 04:48:22 24° SW 04:53:30 10° WNW
Cosmos 2100 Rocket 4.3 04:43:54 10° SSW 04:49:59 52° WNW 04:56:10 10° N
Cosmos 1825 Rocket 4.1 04:47:47 10° N 04:52:07 63° E 04:56:28 10° SSE
